Powrót do katalogu

FIRESAT1

AktywnyNaukaSSO
NORAD 69886·PAYLOAD·🇺🇸 United States

Wystrzelony Jul 7, 2026 z Vandenberg Space Force Base

Loading…

Następne Przeloty (najbliższe 24 godziny)

TLE

ŚwieżeSource: Space-Track

Epoka: Sep 14, 2026, 03:53 UTC

1 69886U 26156T   26257.16182802  .00000756  00000-0  80848-4 0  9997
2 69886  97.7470 156.4773 0006083 296.3004  63.7589 14.91614362 10250

Śledź FIRESAT1 w czasie rzeczywistym z AllMySat

Download on the App Store